Location: Baia Mare
(47.6567°N, 23.5850°E)
Time: 06:41:00
(UTC+03:00)

ISS - Pass Details

Date: 10 March 2020
Orbit: 417 x 423 km, 51.6° (Epoch: 29 March)

Event Time Altitude Azimuth Distance (km) Brightness Sun altitude
Exits shadow 05:29:43 26° 284° (WNW) 873 -2.7 -14.0°
Maximum altitude 05:31:26 64° 209° (SSW) 471 -3.7 -13.7°
Drops below altitude 10° 05:34:47 10° 127° (SE) 1,506 -0.3 -13.2°
Sets 05:36:53 0° 124° (SE) 2,369 0.8 -12.8°
